Weather observations for the past three days for
Plymouth
Imperial (Metric)
Date Time (edt) Wind (mph) Vis. (mi.) Weather Sky Cond. Temperature (ºF) Relative Humidity Wind Chill (°F) Heat Index (°F) Pressure Precipitation (in)
Air Dwpt 6 hour altimeter (in) sea level (mb) 1 hr 3 hr 6 hr
Max. Min.
17 06:15 SW 5 10.00 Fair CLR 77 69.8 79% 79 29.96 0.0
17 05:55 S 7 10.00 Fair CLR 77 69.8 79% 79 29.96 0.0
17 05:35 S 6 10.00 Fair CLR 78.8 69.8 74% 81 29.95 0.0
17 05:15 SW 5 10.00 Fair CLR 78.8 69.8 74% 81 29.95 0.0
17 04:55 S 3 10.00 Fair CLR 78.8 69.8 74% 81 29.95 0.0
17 04:35 S 5 10.00 Fair CLR 78.8 69.8 74% 81 29.95 0.0
17 04:15 Vrbl 5 10.00 Fair CLR 80.6 69.8 70% 84 29.94 0.0
17 03:55 SW 5 10.00 Fair CLR 80.6 69.8 70% 84 29.94 0.0
17 03:35 SW 6 10.00 Fair CLR 80.6 69.8 70% 84 29.95 0.0
17 03:15 SW 6 10.00 Fair CLR 80.6 69.8 70% 84 29.94 0.0
17 02:55 SW 8 10.00 Fair CLR 80.6 69.8 70% 84 29.94 0.0
17 02:35 SW 9 10.00 Fair CLR 82.4 69.8 66% 86 29.94 0.0
17 02:15 SW 9 10.00 Fair CLR 82.4 69.8 66% 86 29.94 0.0
17 01:55 SW 9 10.00 Fair CLR 82.4 69.8 66% 86 29.95 0.0
17 01:35 S 10 10.00 Fair CLR 82.4 69.8 66% 86 29.94 0.0
17 01:15 S 9 G 16 10.00 A Few Clouds FEW060 FEW070 82.4 69.8 66% 86 29.94 0.0
17 00:55 S 10 10.00 Mostly Cloudy BKN060 BKN070 82.4 68 62% 85 29.94 0.0
17 00:35 S 10 10.00 Overcast BKN060 OVC075 84.2 68 58% 87 29.94 0.0
17 00:15 S 12 G 17 10.00 Mostly Cloudy BKN060 BKN075 84.2 68 58% 87 29.93 0.0
16 23:55 S 12 G 17 10.00 Mostly Cloudy BKN060 BKN075 BKN095 84.2 68 58% 87 29.93 0.0
16 23:35 S 10 10.00 Mostly Cloudy SCT060 BKN075 BKN095 84.2 68 58% 87 29.92 0.0
16 23:15 Vrbl 7 G 14 10.00 A Few Clouds FEW110 84.2 68 58% 87 29.92 0.0
16 22:55 S 8 10.00 A Few Clouds FEW065 84.2 68 58% 87 29.91 0.0
16 22:35 S 9 G 15 10.00 Partly Cloudy SCT065 84.2 68 58% 87 29.91 0.0
16 22:15 S 7 G 14 10.00 Partly Cloudy SCT065 SCT075 84.2 68 58% 87 29.9 0.0
16 21:35 S 7 10.00 Fair CLR 84.2 68 58% 87 29.89 0.0
16 21:15 S 7 10.00 Fair CLR 86 68 55% 89 29.89 0.0
16 20:55 S 8 10.00 Fair CLR 86 68 55% 89 29.88 0.0
16 20:35 S 7 10.00 Fair CLR 87.8 68 52% 91 29.89 0.0
16 20:15 S 6 G 12 10.00 Fair CLR 87.8 68 52% 91 29.89 0.0
16 19:55 S 7 G 13 10.00 Fair CLR 89.6 68 49% 93 29.89 0.0
16 19:35 SW 8 G 18 10.00 Fair CLR 89.6 68 49% 93 29.9 0.0
16 19:15 S 10 G 18 10.00 Fair CLR 89.6 68 49% 93 29.89 0.0
16 18:55 S 8 G 17 10.00 Partly Cloudy FEW060 SCT070 89.6 68 49% 93 29.89 0.0
16 18:35 S 15 G 22 10.00 A Few Clouds FEW060 91.4 68 46% 96 29.89 0.0
16 18:15 SW 12 G 22 10.00 Fair CLR 89.6 68 49% 93 29.89 0.0
16 17:55 S 9 G 17 10.00 A Few Clouds FEW060 91.4 68 46% 96 29.89 0.0
16 17:35 S 12 10.00 A Few Clouds FEW050 FEW065 91.4 66.2 44% 94 29.89 0.0
16 17:15 S 14 G 21 10.00 Mostly Cloudy BKN050 93.2 68 44% 98 29.89 0.0
16 16:55 S 12 G 24 10.00 Partly Cloudy SCT050 91.4 66.2 44% 94 29.9 0.0
16 16:35 S 14 G 22 10.00 Fair CLR 91.4 66.2 44% 94 29.9 0.0
16 16:15 S 13 10.00 A Few Clouds FEW055 91.4 66.2 44% 94 29.91 0.0
16 15:55 S 9 G 20 10.00 Mostly Cloudy BKN050 89.6 64.4 43% 91 29.92 0.0
16 15:35 S 13 G 22 10.00 Mostly Cloudy SCT050 BKN060 91.4 64.4 41% 93 29.93 0.0
16 15:15 S 14 G 20 10.00 Partly Cloudy SCT050 89.6 62.6 41% 90 29.93 0.0
16 14:55 S 18 10.00 A Few Clouds FEW048 FEW060 89.6 62.6 41% 90 29.94 0.0
16 14:35 S 9 G 21 10.00 A Few Clouds FEW048 FEW060 89.6 62.6 41% 90 29.95 0.0
16 14:15 S 14 G 23 10.00 Fair CLR 89.6 60.8 38% 90 29.95 0.0
16 13:55 S 12 G 20 10.00 Fair CLR 89.6 60.8 38% 90 29.96 0.0
16 13:35 S 10 G 17 10.00 Fair CLR 87.8 59 38% 87 29.97 0.0
16 13:15 S 14 G 20 10.00 A Few Clouds FEW065 FEW080 86 59 40% 85 29.98 0.0
16 12:55 S 10 G 16 10.00 Partly Cloudy FEW060 SCT070 SCT080 86 59 40% 85 29.99 0.0
16 12:35 S 14 10.00 A Few Clouds FEW065 86 57.2 38% 85 29.99 0.0
16 12:15 S 8 G 20 10.00 Partly Cloudy SCT060 84.2 55.4 37% 83 30 0.0
16 11:55 SE 10 10.00 Fair CLR 84.2 55.4 37% 83 30 0.0
16 11:35 SE 12 10.00 Fair CLR 82.4 53.6 37% 81 30 0.0
16 11:15 SE 14 G 20 10.00 Fair CLR 80.6 53.6 39% 80 30.01 0.0
16 10:55 S 10 10.00 Fair CLR 80.6 53.6 39% 80 30.01 0.0
16 10:35 SE 12 10.00 Fair CLR 78.8 51.8 39% 79 30.02 0.0
16 10:15 S 13 10.00 Fair CLR 77 51.8 42% 78 30.02 0.0
16 09:55 S 13 G 18 10.00 Fair CLR 77 51.8 42% 78 30.03 0.0
16 09:35 SE 13 10.00 Fair CLR 75.2 51.8 44% 78 30.04 0.0
16 09:15 SE 10 G 16 10.00 Fair CLR 73.4 51.8 47% 30.04 0.0
16 08:55 S 12 10.00 Fair CLR 71.6 51.8 50% 30.04 0.0
16 08:35 S 7 10.00 Fair CLR 69.8 51.8 53% 30.05 0.0
16 08:15 SE 5 10.00 Fair CLR 68 51.8 56% 30.04 0.0
16 07:55 SE 7 10.00 Fair CLR 66.2 50 56% 30.04 0.0
16 07:35 SE 6 10.00 Fair CLR 64.4 50 60% 30.04 0.0
16 07:15 SE 6 10.00 Fair CLR 62.6 50 64% 30.04 0.0
16 06:55 SE 6 10.00 Fair CLR 62.6 50 64% 30.05 0.0
16 06:35 SE 6 10.00 Fair CLR 62.6 48.2 60% 30.04 0.0
16 06:15 E 5 10.00 Fair CLR 62.6 48.2 60% 30.04 0.0
16 05:55 SE 6 10.00 Fair CLR 62.6 48.2 60% 30.03 0.0
16 05:35 SE 7 10.00 Fair CLR 62.6 48.2 60% 30.03 0.0
16 05:15 SE 7 10.00 Fair CLR 64.4 48.2 56% 30.03 0.0
16 04:55 SE 7 10.00 Fair CLR 64.4 48.2 56% 30.03 0.0
16 04:35 SE 7 10.00 Fair CLR 64.4 48.2 56% 30.03 0.0
16 04:15 SE 7 10.00 Fair CLR 64.4 48.2 56% 30.04 0.0
16 03:55 SE 7 10.00 Fair CLR 66.2 48.2 52% 30.04 0.0
16 03:35 E 8 10.00 Fair CLR 66.2 48.2 52% 30.05 0.0
16 03:15 SE 9 10.00 Fair CLR 66.2 48.2 52% 30.05 0.0
16 02:55 SE 7 10.00 Fair CLR 66.2 48.2 52% 30.05 0.0
16 02:35 SE 8 10.00 Fair CLR 68 48.2 49% 30.06 0.0
16 02:15 E 10 10.00 Fair CLR 68 48.2 49% 30.06 0.0
16 01:55 E 8 10.00 Fair CLR 68 50 53% 30.06 0.0
16 01:35 E 8 10.00 Fair CLR 68 50 53% 30.06 0.0
16 01:15 E 6 10.00 Fair CLR 68 50 53% 30.06 0.0
16 00:55 E 5 10.00 Fair CLR 68 51.8 56% 30.06 0.0
16 00:35 Calm 10.00 Fair CLR 68 51.8 56% 30.06 0.0
16 00:15 Calm 10.00 Fair CLR 69.8 51.8 53% 30.06 0.0
15 23:55 E 5 10.00 Fair CLR 71.6 51.8 50% 30.05 0.0
15 23:35 SE 6 10.00 Fair CLR 71.6 51.8 50% 30.04 0.0
15 23:15 SE 6 10.00 Fair CLR 71.6 51.8 50% 30.04 0.0
15 22:55 SE 7 10.00 Fair CLR 73.4 51.8 47% 30.04 0.0
15 22:35 SE 7 10.00 Fair CLR 73.4 51.8 47% 30.04 0.0
15 22:15 SE 6 10.00 Fair CLR 75.2 51.8 44% 78 30.04 0.0
15 21:55 SE 8 10.00 Fair CLR 75.2 53.6 47% 78 30.03 0.0
15 21:35 SE 6 10.00 Fair CLR 77 53.6 44% 78 30.03 0.0
15 21:15 SE 8 10.00 Fair CLR 77 53.6 44% 78 30.03 0.0
15 20:55 SE 7 10.00 Fair CLR 78.8 51.8 39% 79 30.04 0.0
15 20:35 SE 6 10.00 Fair CLR 78.8 51.8 39% 79 30.05 0.0
15 20:15 SE 7 10.00 Fair CLR 80.6 51.8 37% 80 30.06 0.0
15 19:55 S 6 10.00 Fair CLR 80.6 51.8 37% 80 30.07 0.0
15 19:35 S 7 10.00 Fair CLR 80.6 50 34% 80 30.07 0.0
15 19:15 S 8 10.00 Fair CLR 82.4 50 32% 81 30.07 0.0
15 18:55 S 9 10.00 Fair CLR 82.4 50 32% 81 30.08 0.0
15 18:35 SE 9 10.00 Fair CLR 82.4 51.8 35% 81 30.08 0.0
15 18:15 E 8 10.00 Fair CLR 84.2 51.8 33% 82 30.08 0.0
15 17:55 SE 9 10.00 Fair CLR 82.4 51.8 35% 81 30.08 0.0
15 17:35 SE 7 10.00 Fair CLR 84.2 51.8 33% 82 30.09 0.0
15 17:15 SE 8 10.00 Fair CLR 82.4 51.8 35% 81 30.09 0.0
15 16:55 SE 7 10.00 Fair CLR 82.4 51.8 35% 81 30.09 0.0
15 16:35 SE 8 10.00 Fair CLR 82.4 51.8 35% 81 30.1 0.0
15 16:15 SE 10 10.00 Fair CLR 82.4 51.8 35% 81 30.1 0.0
15 15:55 SE 12 10.00 Fair CLR 84.2 51.8 33% 82 30.11 0.0
15 15:35 SE 8 10.00 Fair CLR 82.4 51.8 35% 81 30.11 0.0
15 15:15 SE 8 10.00 Fair CLR 84.2 51.8 33% 82 30.12 0.0
15 14:55 Calm 10.00 Fair CLR 82.4 51.8 35% 81 30.12 0.0
15 14:35 S 10 10.00 Fair CLR 82.4 51.8 35% 81 30.12 0.0
15 14:15 Vrbl 7 G 15 10.00 Fair CLR 82.4 51.8 35% 81 30.13 0.0
15 13:55 Vrbl 7 G 17 10.00 Fair CLR 82.4 51.8 35% 81 30.13 0.0
15 13:35 SE 7 G 14 10.00 Fair CLR 82.4 51.8 35% 81 30.13 0.0
15 13:15 Vrbl 7 G 14 10.00 Fair CLR 80.6 51.8 37% 80 30.13 0.0
15 12:55 SE 12 10.00 Fair CLR 80.6 51.8 37% 80 30.14 0.0
15 12:35 SE 9 G 17 10.00 Fair CLR 80.6 51.8 37% 80 30.14 0.0
15 12:15 SE 12 10.00 Fair CLR 78.8 50 37% 79 30.14 0.0
15 11:55 E 9 G 20 10.00 Fair CLR 77 50 39% 78 30.15 0.0
15 11:35 SE 16 10.00 Fair CLR 77 50 39% 78 30.15 0.0
15 11:15 E 12 10.00 Fair CLR 77 50 39% 78 30.15 0.0
15 10:55 SE 13 10.00 Fair CLR 73.4 50 44% 30.15 0.0
15 10:35 SE 12 G 17 10.00 Fair CLR 73.4 50 44% 30.15 0.0
15 10:15 SE 12 G 18 10.00 Fair CLR 71.6 50 47% 30.15 0.0
15 09:55 SE 9 G 18 10.00 Fair CLR 69.8 50 50% 30.16 0.0
15 09:35 SE 12 10.00 Fair CLR 68 51.8 56% 30.17 0.0
15 09:15 SE 9 10.00 Fair CLR 68 51.8 56% 30.17 0.0
15 08:55 SE 10 10.00 Fair CLR 66.2 51.8 60% 30.16 0.0
15 08:35 SE 8 G 16 10.00 Fair CLR 64.4 53.6 68% 30.16 0.0
15 08:15 SE 13 10.00 Fair CLR 66.2 53.6 64% 30.15 0.0
15 07:55 E 9 10.00 Fair CLR 66.2 55.4 68% 30.14 0.0
15 07:35 E 6 10.00 Fair CLR 64.4 57.2 78% 30.13 0.0
15 07:15 E 6 10.00 Fair CLR 64.4 57.2 78% 30.13 0.0
15 06:55 E 5 10.00 Fair CLR 62.6 57.2 83% 30.13 0.0
15 06:35 Calm 10.00 Fair CLR 62.6 57.2 83% 30.12 0.0
15 06:15 Calm 10.00 Fair CLR 62.6 57.2 83% 30.11 0.0
15 05:55 Vrbl 3 10.00 Fair CLR 62.6 57.2 83% 30.11 0.0
15 05:35 E 5 10.00 Fair CLR 62.6 57.2 83% 30.1 0.0
15 05:15 Calm 10.00 Fair CLR 62.6 57.2 83% 30.09 0.0
15 04:55 E 5 10.00 Fair CLR 62.6 57.2 83% 30.08 0.0
15 04:35 E 3 10.00 A Few Clouds FEW075 60.8 57.2 88% 30.07 0.0
15 04:15 Calm 10.00 A Few Clouds FEW075 60.8 57.2 88% 30.07 0.0
15 03:55 Calm 10.00 Fair CLR 59 57.2 94% 30.07 0.0
15 03:35 Calm 10.00 Fair CLR 60.8 57.2 88% 30.07 0.0
15 03:15 Calm 10.00 Fair CLR 59 57.2 94% 30.07 0.0
15 02:55 Calm 10.00 Fair CLR 59 57.2 94% 30.07 0.0
15 02:35 Calm 10.00 Fair CLR 59 57.2 94% 30.06 0.0
15 02:15 Calm 10.00 Fair CLR 59 57.2 94% 30.06 0.0
15 01:55 Calm 10.00 Fair CLR 60.8 57.2 88% 30.06 0.0
15 01:35 Calm 10.00 Fair CLR 59 57.2 94% 30.05 0.0
15 01:15 Calm 10.00 Fair CLR 60.8 57.2 88% 30.06 0.0
15 00:55 Calm 10.00 Fair CLR 62.6 57.2 83% 30.06 0.0
15 00:35 Calm 10.00 Fair CLR 62.6 57.2 83% 30.05 0.0
15 00:15 Calm 10.00 Fair CLR 64.4 55.4 73% 30.05 0.0
14 23:55 Calm 10.00 Fair CLR 64.4 55.4 73% 30.05 0.0
14 23:35 Calm 10.00 Fair CLR 66.2 55.4 68% 30.04 0.0
14 23:15 Calm 10.00 Fair CLR 66.2 55.4 68% 30.04 0.0
14 22:55 Calm 10.00 Fair CLR 68 55.4 64% 30.04 0.0
14 22:35 NW 5 10.00 Fair CLR 68 55.4 64% 30.04 0.0
14 22:15 N 5 10.00 Fair CLR 69.8 57.2 64% 30.03 0.0
14 21:55 Vrbl 5 10.00 Fair CLR 71.6 57.2 61% 30.02 0.0
14 21:35 NW 5 10.00 Fair CLR 71.6 59 65% 30.02 0.0
14 21:15 NW 6 G 12 10.00 Fair CLR 73.4 59 61% 30.01 0.0
14 20:55 NW 7 10.00 Fair CLR 75.2 57.2 54% 78 30 0.0
14 20:35 NW 6 10.00 Fair CLR 77 53.6 44% 78 30 0.0
14 20:15 N 7 10.00 Fair CLR 78.8 48.2 34% 79 29.99 0.0
14 19:55 N 5 10.00 Fair CLR 80.6 46.4 30% 80 29.99 0.0
14 19:35 N 6 10.00 Fair CLR 82.4 44.6 26% 81 29.99 0.0
14 19:15 N 7 10.00 Fair CLR 82.4 44.6 26% 81 29.98 0.0
14 18:55 N 8 10.00 Fair CLR 84.2 46.4 27% 82 29.98 0.0
14 18:35 N 7 10.00 Fair CLR 84.2 44.6 25% 82 29.99 0.0
14 18:15 NW 8 10.00 Fair CLR 84.2 44.6 25% 82 29.98 0.0
14 17:55 N 9 G 16 10.00 Fair CLR 84.2 44.6 25% 82 29.98 0.0
14 17:35 NW 12 G 18 10.00 Fair CLR 84.2 42.8 23% 82 29.98 0.0
14 17:15 NW 10 10.00 Fair CLR 84.2 41 22% 82 29.98 0.0
14 16:55 NW 9 G 16 10.00 Fair CLR 86 42.8 22% 83 29.97 0.0
14 16:35 NW 12 10.00 Fair CLR 86 48.2 27% 83 29.97 0.0
14 16:15 N 8 10.00 Fair CLR 86 48.2 27% 83 29.96 0.0
14 15:55 NW 10 10.00 Fair CLR 86 50 29% 84 29.96 0.0
14 15:35 NW 13 10.00 Fair CLR 86 50 29% 84 29.96 0.0
14 15:15 NW 9 10.00 Fair CLR 86 50 29% 84 29.97 0.0
14 14:55 Vrbl 6 G 15 10.00 Fair CLR 86 48.2 27% 83 29.97 0.0
14 14:35 N 13 10.00 Fair CLR 86 48.2 27% 83 29.97 0.0
14 14:15 N 8 G 14 10.00 Fair CLR 84.2 48.2 29% 82 29.97 0.0
14 13:55 Vrbl 5 G 16 10.00 Fair CLR 84.2 48.2 29% 82 29.97 0.0
14 13:35 Vrbl 6 G 14 10.00 A Few Clouds FEW070 82.4 50 32% 81 29.97 0.0
14 13:15 N 10 G 16 10.00 A Few Clouds FEW070 82.4 51.8 35% 81 29.97 0.0
14 12:55 NW 7 G 15 10.00 Fair CLR 84.2 51.8 33% 82 29.97 0.0
14 12:35 NW 10 10.00 Fair CLR 84.2 51.8 33% 82 29.97 0.0
14 12:15 N 8 G 15 10.00 Fair CLR 82.4 48.2 30% 81 29.97 0.0
14 11:55 Vrbl 6 G 13 10.00 Fair CLR 82.4 53.6 37% 81 29.97 0.0
14 11:35 Vrbl 5 G 13 10.00 Fair CLR 82.4 57.2 42% 82 29.96 0.0
14 11:15 NW 7 G 13 10.00 Fair CLR 80.6 59 48% 81 29.97 0.0
14 10:55 N 5 10.00 Fair CLR 78.8 62.6 58% 80 29.96 0.0
14 10:35 N 3 10.00 Fair CLR 78.8 64.4 61% 81 29.95 0.0
14 10:15 Vrbl 5 10.00 Fair CLR 77 64.4 65% 79 29.95 0.0
14 09:55 NW 5 10.00 Fair CLR 75.2 64.4 69% 77 29.95 0.0
14 09:35 Vrbl 6 10.00 Fair CLR 75.2 66.2 74% 77 29.94 0.0
14 09:15 Vrbl 6 10.00 Fair CLR 73.4 66.2 78% 29.94 0.0
14 08:55 NW 8 10.00 Fair CLR 71.6 66.2 83% 29.93 0.0
14 08:35 NW 7 10.00 Fair CLR 69.8 66.2 88% 29.93 0.0
14 08:15 NW 8 10.00 Fair CLR 69.8 66.2 88% 29.92 0.0
14 07:55 Vrbl 6 10.00 Fair CLR 68 66.2 94% 29.92 0.0
14 07:35 W 8 10.00 Fair CLR 68 66.2 94% 29.93 0.0
14 07:15 W 7 10.00 Fair CLR 68 66.2 94% 29.93 0.0
14 06:55 W 7 10.00 Fair CLR 66.2 66.2 100% 29.93 0.0
14 06:35 W 3 10.00 Fair CLR 66.2 64.4 94% 29.93 0.0
Date Time (edt) Wind (mph) Vis. (mi.) Weather Sky Cond. Air Dwpt Max. Min. Relative Humidity Wind Chill (°F) Heat Index (°F) altimeter (in) sea level (mb) 1 hr 3 hr 6 hr
6 hour
Temperature (ºF) Pressure Precipitation (in)